Philadelphia, PA

7:14 AM EST on February 11, 2016 (GMT -0500)
Philadelphia International

Weather History for KPHL - August, 2014

Change the Weather History Date:

Saturday, August 30, 2014

  Actual Average Record
Temperature  
Mean Temperature 71 °F 74 °F  
Max Temperature 81 °F 83 °F 100 °F (1953)
Min Temperature 60 °F 66 °F 47 °F (1986)
Degree Days  
Heating Degree Days 0 0  
Month to date heating degree days 0 0  
Since 1 June heating degree days 0 11  
Since 1 July heating degree days 0 0  
Cooling Degree Days 6 10  
Month to date cooling degree days 293 352  
Year to date cooling degree days 1080 1109  
Since 1 June cooling degree days 997 1018  
Growing Degree Days 20 (Base 50)    
Moisture  
Dew Point 61 °F    
Average Humidity 69    
Maximum Humidity 84    
Minimum Humidity 54    
Precipitation  
Precipitation 0.00 in 0.10 in 2.32 in (1911)
Month to date precipitation 2.44 3.40  
Year to date precipitation 34.70 27.92  
Snow  
Snow 0.00 in 0.00 in 0.00 in (1870)
Month to date snowfall 0.0 0.0  
Since 1 June snowfall 0.0 0.0  
Since 1 July snowfall 0.0 0.0  
Snow Depth 0.00 in    
Sea Level Pressure  
Sea Level Pressure 30.22 in    
Wind  
Wind Speed 6 mph (SSE)    
Max Wind Speed 13 mph    
Max Gust Speed 16 mph    
Visibility 10 miles    
Events      
T = Trace of Precipitation, MM = Missing Value Source: NWS Daily Summary

Daily Weather History Graph

Daily Weather History Graph

Search for Another Location

Airport or City:

Trip Planner

Search our weather history database for the weather conditions in past years. The results will help you decide how hot, cold, wet, or windy it might be!

Date:

Astronomy

Aug. 30, 2014 Rise Set
Actual Time 6:26 AM EDT 7:35 PM EDT
Civil Twilight 5:59 AM EDT 8:03 PM EDT
Nautical Twilight 5:25 AM EDT 8:36 PM EDT
Astronomical Twilight 4:51 AM EDT 9:10 PM EDT
Moon 11:11 AM EDT (8/30) 10:08 PM EDT (8/30)
Length of Visible Light 14h 04m
Length of Day
13h 08m
Waxing Crescent, 23% of the Moon is Illuminated
Aug 30
Waxing Crescent
Sep 2
First Quarter
Sep 8
Full
Sep 15
Last Quarter
Sep 24
New

Hourly Weather History & Observations

Time (EDT) Temp. Heat Index Dew Point Humidity Pressure Visibility Wind Dir Wind Speed Gust Speed Precip Events Conditions
12:54 AM 66.0 °F - 59.0 °F 78% 30.25 in 10.0 mi SSE 3.5 mph - N/A   Scattered Clouds
1:54 AM 64.9 °F - 57.9 °F 78% 30.25 in 10.0 mi Calm Calm - N/A   Scattered Clouds
2:54 AM 63.0 °F - 57.9 °F 84% 30.25 in 10.0 mi East 4.6 mph - N/A   Partly Cloudy
3:54 AM 63.0 °F - 57.9 °F 84% 30.25 in 10.0 mi Calm Calm - N/A   Scattered Clouds
4:54 AM 62.1 °F - 57.9 °F 86% 30.25 in 10.0 mi Calm Calm - N/A   Scattered Clouds
5:54 AM 62.1 °F - 57.9 °F 86% 30.25 in 10.0 mi East 4.6 mph - N/A   Scattered Clouds
6:54 AM 63.0 °F - 57.9 °F 84% 30.26 in 10.0 mi East 6.9 mph - N/A   Scattered Clouds
7:54 AM 66.0 °F - 59.0 °F 78% 30.27 in 10.0 mi East 3.5 mph - N/A   Mostly Cloudy
8:54 AM 69.1 °F - 60.1 °F 73% 30.27 in 10.0 mi NNE 4.6 mph - N/A   Scattered Clouds
9:54 AM 73.9 °F - 62.1 °F 66% 30.25 in 10.0 mi Variable 5.8 mph - N/A   Mostly Cloudy
10:54 AM 75.0 °F - 62.1 °F 64% 30.25 in 10.0 mi SSE 10.4 mph - N/A   Overcast
11:54 AM 75.9 °F - 62.1 °F 62% 30.25 in 10.0 mi SSW 9.2 mph - N/A   Overcast
12:54 PM 78.1 °F - 61.0 °F 56% 30.23 in 10.0 mi South 9.2 mph - N/A   Overcast
1:54 PM 78.1 °F - 61.0 °F 56% 30.22 in 10.0 mi South 9.2 mph - N/A   Overcast
2:54 PM 79.0 °F - 60.1 °F 52% 30.20 in 10.0 mi South 9.2 mph - N/A   Overcast
3:54 PM 80.1 °F 81.2 °F 62.1 °F 54% 30.18 in 10.0 mi South 9.2 mph - N/A   Overcast
4:54 PM 79.0 °F - 61.0 °F 54% 30.17 in 10.0 mi SSE 9.2 mph - N/A   Mostly Cloudy
5:54 PM 78.1 °F - 62.1 °F 58% 30.17 in 10.0 mi SSE 6.9 mph - N/A   Mostly Cloudy
6:54 PM 78.1 °F - 61.0 °F 56% 30.16 in 10.0 mi SE 5.8 mph - N/A   Mostly Cloudy
7:54 PM 75.9 °F - 63.0 °F 64% 30.16 in 10.0 mi SE 5.8 mph - N/A   Overcast
8:54 PM 75.0 °F - 63.0 °F 66% 30.16 in 10.0 mi SE 6.9 mph - N/A   Overcast
9:54 PM 75.0 °F - 62.1 °F 64% 30.17 in 10.0 mi South 5.8 mph - N/A   Overcast
10:54 PM 73.9 °F - 63.0 °F 68% 30.17 in 10.0 mi South 6.9 mph - N/A   Overcast
11:54 PM 73.0 °F - 64.0 °F 73% 30.17 in 10.0 mi South 6.9 mph - N/A   Mostly Cloudy